SCP
0 0 0 0 0 0 0 0 0 0 0 0 0 0 0 0 0 0 0 0 0 0 0 0 0 0 0 0 0 0 0 0 0 0 0 0 0 0 0 0 0 0 0
0 0 0 0 0 0 0 0 0 0 0 0 0 0 0 0 0 0 0 0 0 0 0 0 0 0 0 0 0 0 0 0 0 0 0 0 0 0 0 0 0 0 0
0 0 0 0 0 0 0 0 0 0 0 0 0 0 0 0 0 0 0 0 0 0 0 0 0 0 0 0 0 0 0 0 0 0 0 0 0 0 0 0 0 0 0
0 0 0 0 0 0 0 0 0 0 0 0 0 0 0 0 0 0 0 0 0 0 0 0 0 0 0 0 0 0 0 0 0 0 0 0 0 0 0 0 0 0 0
0 0 0 0 0 0 0 0 0 0 0 0 0 0 0 0 0 0 0 0 0 0 0 0 0 0 0 0 0 0 0 0 0 0 0 0 0 0 0 0 0 0 0
0 0 0 0 0 0 0 0 0 0 0 0 0 0 0 0 0 0 0 0 0 0 0 0 0 0 0 0 0 0 0 0 0 0 0 0 0 0 0 0 0 0 0
0 0 0 0 0 0 0 0 0 0 0 0 0 0 0 0 0 0 0 0 0 0 0 0 0 0 0 0 0 0 0 0 0 0 0 0 0 0 0 0 0 0 0
0 0 0 0 0 0 0 0 0 0 0 0 0 0 0 0 0 0 0 0 0 0 0 0 0 0 0 0 0 0 0 0 0 0 0 0 0 0 0 0 0 0 0
0 0 0 0 0 0 0 0 0 0 0 0 0 0 0 0 0 0 0 0 0 0 0 0 0 0 0 0 0 0 0 0 0 0 0 0 0 0 0 0 0 0 0
0 0 0 0 0 0 0 0 0 0 0 0 0 0 0 0 0 0 0 0 0 0 0 0 0 0 0 0 0 0 0 0 0 0 0 0 0 0 0 0 0 0 0
0 0 0 0 0 0 0 0 0 0 0 0 0 0 0 0 0 0 0 0 0 0 0 0 0 0 0 0 0 0 0 0 0 0 0 0 0 0 0 0 0 0 0
0 0 0 0 0 0 0 0 0 0 0 0 0 0 0 0 0 0 0 0 0 0 0 0 0 0 0 0 0 0 0 0 0 0 0 0 0 0 0 0 0 0 0
0 0 0 0 0 0 0 0 0 0 0 0 0 0 0 0 0 0 0 0 0 0 0 0 0 0 0 0 0 0 0 0 0 0 0 0 0 0 0 0 0 0 0
0 0 0 0 0 0 0 0 0 0 0 0 0 0 0 0 0 0 0 0 0 0 0 0 0 0 0 0 0 0 0 0 0 0 0 0 0 0 0 0 0 0 0
0 0 0 0 0 0 0 0 0 0 0 0 0 0 0 0 0 0 0 0 0 0 0 0 0 0 0 0 0 0 0 0 0 0 0 0 0 0 0 0 0 0 0
0 0 0 0 0 0 0 0 0 0 0 0 0 0 0 0 0 0 0 0 0 0 0 0 0 0 0 0 0 0 0 0 0 0 0 0 0 0 0 0 0 0 0
0 0 0 0 0 0 0 0 0 0 0 0 0 0 0 0 0 0 0 0 0 0 0 0 0 0 0 0 0 0 0 0 0 0 0 0 0 0 0 0 0 0 0
0 0 0 0 0 0 0 0 0 0 0 0 0 0 0 0 0 0 0 0 0 0 0 0 0 0 0 0 0 0 0 0 0 0 0 0 0 0 0 0 0 0 0
0 0 0 0 0 0 0 0 0 0 0 0 0 0 0 0 0 0 0 0 0 0 0 0 0 0 0 0 0 0 0 0 0 0 0 0 0 0 0 0 0 0 0
0 0 0 0 0 0 0 0 0 0 0 0 0 0 0 0 0 0 0 0 0 0 0 0 0 0 0 0 0 0 0 0 0 0 0 0 0 0 0 0 0 0 0
0 0 0 0 0 0 0 0 0 0 0 0 0 0 0 0 0 0 0 0 0 0 0 0 0 0 0 0 0 0 0 0 0 0 0 0 0 0 0 0 0 0 0
0 0 0 0 0 0 0 0 0 0 0 0 0 0 0 0 0 0 0 0 0 0 0 0 0 0 0 0 0 0 0 0 0 0 0 0 0 0 0 0 0 0 0
0 0 0 0 0 0 0 0 0 0 0 0 0 0 0 0 0 0 0 0 0 0 0 0 0 0 0 0 0 0 0 0 0 0 0 0 0 0 0 0 0 0 0
0 0 0 0 0 0 0 0 0 0 0 0 0 0 0 0 0 0 0 0 0 0 0 0 0 0 0 0 0 0 0 0 0 0 0 0 0 0 0 0 0 0 0
0 0 0 0 0 0 0 0 0 0 0 0 0 0 0 0 0 0 0 0 0 0 0 0 0 0 0 0 0 0 0 0 0 0 0 0 0 0 0 0 0 0 0
0 0 0 0 0 0 0 0 0 0 0 0 0 0 0 0 0 0 0 0 0 0 0 0 0 0 0 0 0 0 0 0 0 0 0 0 0 0 0 0 0 0 0
Wind_Speed
7 6 5 5 5 4 5 4 4 4 4 4 4 4 3 3 3 3 2 6 6 5 5 4 4 3 3 3 3 2 1 2 2 2 1 1 1 2 2 3 3 4 4
7 7 6 6 6 5 5 5 5 5 4 3 4 4 4 3 3 3 3 3 5 5 4 4 4 3 3 3 3 3 2 2 1 1 1 1 1 2 3 3 4 4 4
9 7 7 7 6 6 6 4 4 3 3 3 3 4 3 3 3 4 3 2 2 3 3 3 3 3 3 3 3 2 2 1 1 1 1 1 1 2 3 4 4 4 4
9 8 7 7 6 6 5 5 4 4 4 3 3 3 3 3 3 3 3 2 2 1 2 2 1 1 2 3 3 2 1 1 1 1 1 1 2 3 4 5 5 5 5
10 8 7 7 7 6 5 6 4 4 4 4 3 3 2 3 3 3 3 3 3 2 2 2 2 2 2 2 2 2 1 2 2 2 1 1 2 3 4 5 4 5 5
9 8 6 8 7 6 6 5 5 4 4 4 3 2 1 2 2 3 4 3 3 3 2 2 1 1 3 2 1 1 2 3 2 2 2 2 3 4 4 4 4 5 5
9 8 7 7 7 7 7 7 5 5 4 3 3 1 1 0 1 2 3 3 3 3 3 3 2 1 1 4 3 2 2 2 1 1 1 2 3 4 4 4 5 5 4
8 8 8 7 7 6 7 6 5 4 3 4 4 3 1 1 1 1 2 3 3 2 3 3 3 2 2 1 3 4 2 1 0 1 1 2 2 3 4 5 6 5 5
8 7 8 8 7 7 7 8 7 7 5 4 4 5 4 5 2 1 1 2 3 3 2 2 3 3 3 2 1 2 3 2 1 0 1 2 3 4 4 5 5 5 5
7 8 8 8 8 7 7 7 7 5 7 6 4 3 3 4 4 2 1 1 3 3 3 3 3 3 3 2 2 3 3 2 1 1 2 3 4 4 5 5 5 6 6
6 7 8 7 7 6 7 7 6 6 5 6 5 4 3 2 2 3 3 2 2 2 3 3 3 3 3 2 1 2 3 2 1 2 2 3 4 5 6 5 6 6 6
4 6 6 6 7 6 7 7 7 8 6 6 5 4 4 4 4 4 4 3 3 2 2 2 2 3 2 2 2 3 3 2 2 2 2 3 4 5 6 6 6 6 6
2 5 5 5 5 5 6 6 6 7 7 7 6 5 5 4 3 3 3 3 2 2 2 2 2 3 3 2 2 3 2 2 2 3 3 4 5 5 5 6 6 6 6
3 3 5 5 5 5 5 6 5 6 6 6 6 6 4 4 4 4 4 4 3 2 2 3 1 2 3 3 3 4 2 4 4 3 4 4 4 4 5 6 6 6 7
2 3 3 4 5 5 6 6 5 6 6 6 6 6 5 4 3 3 3 4 5 5 5 4 3 3 3 3 4 3 2 4 4 4 4 3 3 3 4 5 6 6 6
2 2 3 4 5 6 6 6 5 5 6 6 5 6 5 4 4 4 4 3 3 4 3 3 2 3 4 3 5 3 3 5 5 4 4 3 2 3 4 5 6 6 6
2 2 3 5 5 6 6 6 6 6 7 6 5 6 7 5 5 4 4 4 3 3 3 2 1 2 3 4 3 2 2 2 2 4 4 3 2 2 3 4 5 6 6
2 2 2 4 4 5 6 7 7 7 8 8 7 7 7 6 6 5 5 5 4 4 4 4 2 3 3 5 4 4 2 2 2 4 4 3 2 2 3 4 4 5 6
2 2 1 3 4 5 6 6 7 7 8 8 8 8 7 8 7 6 6 5 4 3 3 4 3 2 2 3 3 2 2 1 1 3 4 3 3 2 2 3 4 5 5
3 3 3 3 3 4 4 5 6 6 6 6 7 7 8 8 9 8 7 7 5 5 4 4 4 3 2 3 3 3 2 1 1 1 2 3 3 2 2 2 3 4 4
4 4 4 4 4 3 3 4 5 5 5 5 5 6 7 8 9 8 7 8 8 6 5 5 4 4 4 4 5 4 3 2 1 1 1 1 1 1 1 1 2 3 4
5 4 4 4 4 4 5 6 4 4 4 5 5 5 5 6 8 9 10 11 11 9 8 6 5 6 6 5 4 4 4 4 2 2 2 1 1 1 0 1 1 1 3
6 5 5 4 4 5 6 6 5 3 3 4 4 4 3 4 6 5 7 9 9 11 11 8 7 7 7 7 7 5 5 4 3 3 3 2 1 2 1 1 1 1 2
5 5 5 5 4 5 6 5 4 3 3 3 4 4 4 4 5 6 5 4 4 4 6 5 6 6 6 7 8 7 6 4 3 1 3 3 2 1 1 1 2 2 1
5 5 5 5 4 5 5 5 4 2 2 3 3 3 5 5 8 9 6 6 4 2 3 5 6 7 8 10 9 6 5 5 3 2 2 3 2 1 1 1 2 2 1
5 5 5 5 5 4 6 5 4 1 2 2 1 2 5 6 9 9 7 7 6 4 4 4 4 4 4 7 10 7 7 5 3 3 3 3 3 3 1 1 1 1 1
Wind_Direction
172 171 172 174 176 174 176 180 188 197 209 218 221 219 212 199 193 187 196 195 195 199 202 207 220 229 235 242 245 253 269 259 239 226 226 285 328 339 340 333 339 343 338
174 174 176 180 184 185 186 188 193 197 207 208 215 209 201 190 186 181 182 190 194 196 204 213 227 236 245 251 254 254 252 268 245 208 213 248 320 326 328 325 316 318 321
177 176 179 184 189 188 188 188 193 193 202 203 207 203 190 180 173 177 175 177 185 201 204 204 223 244 250 253 249 247 242 220 201 203 215 304 314 316 318 314 310 307 312
180 178 181 187 185 182 185 188 188 188 196 193 191 193 181 168 171 175 168 164 161 161 169 165 171 277 270 251 243 235 202 195 136 100 52 359 337 332 326 312 306 303 302
184 184 187 189 185 185 190 195 190 183 187 190 186 182 181 173 171 163 157 159 158 151 146 126 103 53 7 287 237 200 162 133 112 88 66 24 355 345 340 341 327 319 308
190 188 190 191 185 186 193 192 186 186 183 177 169 169 190 181 167 165 163 155 150 148 143 134 111 55 37 35 114 139 129 124 115 94 66 38 7 347 344 345 344 337 330
193 191 193 190 189 193 196 190 183 183 186 159 134 132 359 359 178 180 164 151 149 149 141 133 120 100 53 51 57 93 113 120 114 105 77 43 12 359 359 355 349 346 345
195 197 195 193 192 192 196 197 188 180 187 176 156 146 187 270 247 194 170 163 158 143 139 135 128 120 100 70 54 66 62 64 56 104 58 19 12 3 3 360 355 349 345
199 201 199 196 195 193 199 200 196 191 191 192 176 166 174 204 194 224 202 171 164 157 155 143 140 136 129 108 74 53 54 44 31 45 35 28 8 4 360 354 350 351 347
203 206 204 199 196 198 201 204 202 202 191 194 194 201 185 159 163 179 218 188 175 175 179 167 154 147 139 125 104 83 68 48 8 359 27 21 17 2 354 352 349 348 344
210 210 206 200 200 201 202 204 204 205 203 199 191 183 185 185 167 166 191 194 195 202 196 181 168 157 146 135 127 101 80 63 24 13 18 19 14 1 354 352 352 350 348
211 214 207 202 203 204 204 206 206 206 207 204 202 192 183 182 188 180 185 185 192 198 190 180 176 169 162 153 147 126 108 94 64 42 42 36 29 16 7 353 347 347 345
215 219 213 208 205 205 205 204 205 207 205 202 204 207 205 202 172 165 165 170 170 174 173 187 191 175 166 155 153 140 131 119 96 79 62 52 41 27 12 358 351 348 341
208 214 212 210 207 206 207 206 206 207 204 203 206 203 203 202 188 177 167 160 163 180 195 200 178 180 168 161 166 146 143 137 124 105 85 69 50 31 15 360 355 352 343
205 201 213 211 209 207 207 206 212 208 205 205 205 204 207 201 190 182 172 170 168 187 207 190 182 180 174 163 164 153 153 157 143 125 109 88 56 34 17 8 6 359 348
227 207 221 219 213 210 208 208 213 209 208 210 204 201 207 200 186 182 182 179 176 173 189 173 178 171 169 161 167 157 170 162 158 146 130 109 72 47 34 25 13 6 358
265 234 231 222 213 212 210 211 214 208 208 210 205 202 204 193 188 184 177 174 172 157 171 166 148 152 157 162 154 149 146 147 166 160 151 133 99 73 52 32 17 9 5
300 279 258 238 223 221 215 214 218 213 210 210 209 203 203 192 189 184 180 183 179 163 159 174 166 165 167 168 159 158 161 161 165 174 166 152 133 98 66 42 23 14 12
323 317 302 277 247 234 224 221 221 218 216 213 208 203 200 193 195 192 188 185 179 163 148 160 167 159 149 151 146 145 150 148 176 179 175 165 157 127 83 48 26 20 20
342 334 316 304 290 264 242 231 228 227 226 221 212 206 201 198 198 191 190 185 173 166 156 157 161 159 153 147 149 157 167 173 183 175 182 165 155 131 101 60 34 24 25
352 342 331 322 316 300 270 256 241 234 230 228 221 213 210 204 200 197 194 185 177 174 169 171 168 163 169 168 179 169 173 162 184 185 158 156 122 94 58 23 29 29 36
352 342 332 322 318 312 302 287 267 240 232 226 226 220 210 202 198 202 203 196 187 180 181 179 182 186 187 177 162 166 157 159 201 199 159 183 137 153 211 273 313 45 49
348 342 334 326 313 307 310 302 293 268 239 228 221 215 214 205 193 187 193 196 198 197 191 182 186 191 179 176 166 169 175 171 185 172 146 172 162 185 233 254 212 125 76
344 333 326 322 313 306 310 308 304 281 253 237 222 210 203 198 192 178 167 167 178 190 190 188 188 184 178 172 174 174 167 137 98 115 142 161 175 189 205 298 251 192 159
335 328 323 320 314 310 313 314 317 283 258 250 233 215 203 199 198 189 174 169 168 172 164 168 174 176 177 174 164 139 143 144 155 179 166 148 156 149 161 265 280 244 196
327 327 327 322 314 310 315 319 319 287 267 263 246 222 216 209 200 194 182 172 177 179 149 134 132 141 153 168 170 165 162 157 148 179 182 150 148 142 172 259 288 345 354